www.pogodaiklimat.ru

Погода и климат >> Архив погоды >> Великобритания >> London


АРХИВ ПОГОДЫ в London

Время (UTC), дата Ветер
(напр.,м/с)
 
Видим.   Явления Облачность Т
(С)
Тd
(С)
f
(%)
Тe
(С)
Тes
(С)
Комфортность P
(гПа)
Po
(гПа)
Тmin
(С)
Tmax
(С)
R
(мм)
R24
(мм)
S
(см)
16 11.06 СВ 5 24 км н/о +24.6 +7.4 33 +25 +25 комфорт 1012.3 1009.4
17 11.06 СВ 4 40 км н/о +24.7 +9.2 37 +25 +25 комфорт 1012.2 1009.3
18 11.06 В 5 45 км н/о +23.0 +9.2 41 +24 +24 комфорт 1012.6 1009.7 +25.4
19 11.06 В 5 45 км н/о +21.1 +9.5 47 +22 +22 комфорт 1013.0 1010.1
20 11.06 В 5 45 км н/о +18.9 +9.0 53 +19 +19 тепло 1013.1 1010.2
21 11.06 В 2 45 км н/о +17.7 +9.9 60 +18 +18 тепло 1013.7 1010.7
22 11.06 В 3 50 км н/о +17.5 +9.1 58 +18 +18 тепло 1013.9 1011.0
23 11.06 СВ 2 28 км н/о +16.7 +8.7 59 +17 +17 тепло 1014.2 1011.2
00 12.06 В 2 35 км н/о +15.7 +9.2 65 +16 +16 тепло 1014.1 1011.2
01 12.06 СВ 2 40 км н/о +15.2 +9.7 70 +15 +15 тепло 1014.3 1011.3
02 12.06 С 2 35 км н/о +14.1 +9.9 76 +14 +14 тепло 1014.3 1011.3
03 12.06 СВ 2 24 км н/о +13.8 +10.1 78 +13 +13 по сезону 1014.3 1011.3
04 12.06 СВ 2 25 км н/о +13.2 +10.4 83 +12 +12 тепло 1014.4 1011.3
05 12.06 СВ 2 19 км н/о +13.3 +10.6 84 +13 +13 тепло 1014.7 1011.6
06 12.06 СВ 3 19 км н/о +14.3 +10.8 79 +13 +13 по сезону 1015.1 1012.1 +12.8
07 12.06 СВ 4 23 км н/о +14.1 +10.3 78 +13 +13 по сезону 1015.7 1012.7
08 12.06 СВ 3 23 км н/о +14.7 +9.7 72 +14 +14 по сезону 1016.4 1013.4
09 12.06 СВ 4 23 км н/о +14.6 +9.8 73 +14 +14 по сезону 1016.8 1013.8
10 12.06 С 4 21 км н/о +15.5 +10.4 72 +15 +15 прохладно 1017.1 1014.1
11 12.06 СВ 4 27 км н/о +17.0 +11.3 69 +17 +17 по сезону 1017.5 1014.5
12 12.06 СВ 4 25 км н/о +16.6 +10.8 69 +16 +16 прохладно 1017.6 1014.6
13 12.06 С 4 30 км н/о +16.2 +11.4 73 +16 +16 прохладно 1017.9 1014.9
14 12.06 СВ 3 35 км н/о +17.1 +11.8 71 +17 +17 по сезону 1017.9 1014.9
15 12.06 СВ 4 30 км в посл. час дождь н/о +17.3 +11.6 69 +17 +17 по сезону 1017.8 1014.8
16 12.06 СВ 3 40 км н/о +18.4 +9.4 56 +19 +19 тепло 1017.8 1014.8
17 12.06 С 4 45 км н/о +18.1 +9.3 56 +18 +18 по сезону 1017.8 1014.8
18 12.06 СВ 3 45 км н/о +17.4 +10.0 62 +17 +17 по сезону 1018.1 1015.1 +18.6 0.0
19 12.06 С 4 40 км н/о +17.6 +8.7 56 +17 +17 тепло 1018.3 1015.3
20 12.06 СВ 3 45 км н/о +16.3 +7.1 54 +16 +16 тепло 1018.6 1015.6
21 12.06 СВ 3 45 км н/о +14.9 +8.3 65 +14 +14 по сезону 1019.3 1016.3
22 12.06 СВ 2 45 км н/о +13.7 +7.9 68 +13 +13 тепло 1019.8 1016.8
23 12.06 СВ 2 45 км н/о +13.0 +7.3 68 +13 +13 тепло 1020.1 1017.1
00 13.06 СЗ 1 35 км н/о +12.0 +7.7 75 +12 +12 по сезону 1020.4 1017.4
01 13.06 С 2 40 км н/о +11.1 +7.8 80 +10 +10 по сезону 1020.3 1017.2
02 13.06 С 1 45 км н/о +10.7 +7.7 82 +10 +10 по сезону 1020.1 1017.0
03 13.06 С 2 35 км н/о +9.6 +7.7 88 +8 +8 прохладно 1020.1 1017.0
04 13.06 СВ 1 30 км н/о +9.5 +7.5 87 +9 +9 по сезону 1019.8 1016.7
05 13.06 СЗ 1 30 км н/о +10.3 +8.3 87 +10 +10 по сезону 1020.0 1017.0
06 13.06 СЗ 1 27 км н/о +12.0 +9.3 84 +12 +12 по сезону 1020.1 1017.1 +9.4
07 13.06 Ю 3 35 км н/о +14.2 +9.2 72 +13 +13 по сезону 1019.9 1016.9
08 13.06 Ю 2 14 км н/о +16.3 +8.1 58 +16 +16 по сезону 1019.9 1016.9
09 13.06 ЮЗ 2 30 км н/о +17.8 +8.3 54 +19 +19 тепло 1019.2 1016.2
10 13.06 ЮЗ 3 30 км н/о +19.5 +9.4 52 +21 +21 комфорт 1019.2 1016.2
11 13.06 Ю 3 30 км н/о +20.6 +9.2 48 +22 +22 комфорт 1019.0 1016.0
12 13.06 З 4 30 км н/о +20.9 +9.4 48 +23 +23 комфорт 1018.5 1015.5
13 13.06 ЮЗ 4 40 км н/о +21.6 +9.0 44 +23 +23 комфорт 1017.8 1014.9
14 13.06 ЮЗ 6 35 км н/о +22.9 +10.0 44 +25 +25 комфорт 1017.3 1014.4
15 13.06 ЮЗ 6 30 км н/о +21.3 +10.4 50 +23 +23 комфорт 1017.0 1014.0
16 13.06 ЮЗ 7 30 км н/о +21.6 +9.2 45 +23 +23 комфорт 1016.5 1013.6
17 13.06 ЮЗ 7 40 км н/о +20.8 +8.6 45 +22 +22 комфорт 1016.3 1013.4
18 13.06 ЮЗ 8 40 км н/о +19.7 +8.3 48 +20 +20 тепло 1016.3 1013.4 +23.3
19 13.06 ЮЗ 7 45 км н/о +18.6 +7.6 49 +18 +18 тепло 1016.1 1013.1
20 13.06 ЮЗ 6 45 км н/о +17.7 +8.5 55 +17 +17 тепло 1015.8 1012.8
21 13.06 Ю 5 30 км н/о +16.8 +10.1 65 +16 +16 по сезону 1015.7 1012.7
22 13.06 Ю 7 21 км н/о +15.8 +11.1 74 +14 +14 тепло 1015.3 1012.3
23 13.06 Ю 5 15 км н/о +15.0 +11.4 79 +14 +14 тепло 1014.9 1011.9
00 14.06 ЮЗ 5 12 км слаб. морось с дождем н/о +14.7 +11.9 83 +13 +13 по сезону 1014.5 1011.5 0.0
01 14.06 Ю 5 12 км слаб. ливневой дождь н/о +14.6 +12.0 84 +13 +13 тепло 1013.6 1010.6
02 14.06 ЮЗ 6 22 км в посл. час дождь н/о +14.6 +11.6 82 +13 +13 тепло 1012.8 1009.8
03 14.06 ЮЗ 6 30 км слаб. ливневой дождь н/о +14.6 +11.9 84 +13 +13 по сезону 1012.0 1009.0
04 14.06 ЮЗ 7 30 км в посл. час дождь н/о +14.9 +11.1 78 +13 +13 тепло 1011.3 1008.3
05 14.06 ЮЗ 7 35 км н/о +14.9 +11.1 78 +13 +13 по сезону 1010.7 1007.7
06 14.06 ЮЗ 8 30 км н/о +15.3 +11.4 78 +13 +13 по сезону 1010.3 1007.3 +14.5 0.0
07 14.06 ЮЗ 9 30 км н/о +15.6 +11.6 77 +14 +14 по сезону 1010.1 1007.1
08 14.06 ЮЗ 7 12 км в посл. час дождь н/о +14.7 +13.2 91 +13 +13 по сезону 1010.0 1007.0
09 14.06 ЮЗ 8 30 км н/о +15.7 +13.0 84 +14 +14 по сезону 1009.7 1006.7
10 14.06 ЮЗ 8 7000 м слаб. морось с дождем н/о +16.0 +14.2 89 +14 +14 холодно 1010.0 1007.1
11 14.06 ЮЗ 7 30 км в посл. час дождь н/о +18.5 +14.1 76 +18 +18 по сезону 1010.5 1007.5
12 14.06 З 8 18 км н/о +20.1 +11.8 59 +21 +21 комфорт 1010.5 1007.6 0.0
13 14.06 З 7 17 км н/о +20.8 +9.4 48 +22 +22 комфорт 1011.0 1008.1
14 14.06 З 8
{13}
21 км н/о +23.1 +9.4 42 +25 +25 комфорт 1011.2 1008.2
15 14.06 З 7-13
{13}
30 км н/о +23.4 +9.7 42 +25 +25 комфорт 1011.6 1008.7
16 14.06 З 7 23 км н/о +22.5 +9.3 43 +24 +24 комфорт 1012.1 1009.2
18 14.06 З 5 45 км н/о +21.5 +8.6 44 +23 +23 комфорт 1013.1 1010.2 +23.9 0.0
19 14.06 СЗ 4 28 км н/о +21.2 +8.8 45 +22 +22 комфорт 1013.7 1010.7
20 14.06 СЗ 2 40 км н/о +19.8 +8.9 49 +21 +21 комфорт 1014.4 1011.5
21 14.06 З 4 27 км н/о +18.2 +10.2 60 +18 +18 тепло 1015.3 1012.3
23 14.06 З 4 17 км н/о +16.0 +10.6 70 +15 +15 тепло 1016.1 1013.1
22 14.06 З 4 16 км н/о +17.3 +10.8 66 +17 +17 тепло 1015.7 1012.7
00 15.06 З 3 19 км н/о +15.3 +10.3 72 +15 +15 тепло 1016.3 1013.3
01 15.06 З 2 17 км н/о +13.5 +10.0 79 +13 +13 тепло 1016.1 1013.0
02 15.06 З 2 14 км н/о +13.5 +10.1 80 +13 +13 по сезону 1016.2 1013.2
03 15.06 СЗ 2 19 км н/о +13.3 +10.0 80 +13 +13 по сезону 1016.4 1013.4
05 15.06 СЗ 2 14 км н/о +12.3 +9.9 85 +11 +11 по сезону 1016.7 1013.6
04 15.06 З 2 18 км н/о +12.1 +9.9 86 +11 +11 по сезону 1016.4 1013.4
06 15.06 СЗ 2 18 км н/о +12.7 +9.9 83 +12 +12 по сезону 1016.9 1013.9 +11.5
07 15.06 З 3 20 км н/о +14.9 +9.9 72 +14 +14 по сезону 1017.3 1014.3
08 15.06 З 2 17 км н/о +17.0 +10.0 63 +18 +18 тепло 1017.4 1014.4
09 15.06 З 2 28 км н/о +18.4 +9.3 55 +19 +19 тепло 1016.9 1013.9
11 15.06 ЮЗ 2 16 км н/о +20.9 +8.4 45 +23 +23 комфорт 1016.9 1013.9
10 15.06 ЮЗ 3 24 км н/о +20.3 +9.0 48 +22 +22 комфорт 1016.6 1013.7
12 15.06 З 4 22 км н/о +22.5 +9.7 44 +24 +24 комфорт 1016.3 1013.4
13 15.06 З 4 26 км н/о +21.9 +8.4 42 +23 +23 комфорт 1016.4 1013.5
14 15.06 З 6 29 км н/о +22.3 +7.2 38 +23 +23 комфорт 1016.3 1013.4
15 15.06 З 6 35 км н/о +21.9 +6.8 38 +23 +23 комфорт 1016.1 1013.2
17 15.06 З 4 40 км н/о +21.1 +6.6 39 +22 +22 комфорт 1015.5 1012.6
16 15.06 З 6 50 км н/о +21.7 +7.2 39 +23 +23 комфорт 1015.9 1012.9
18 15.06 З 4 30 км н/о +20.9 +7.4 42 +22 +22 комфорт 1015.5 1012.5 +23.4
19 15.06 СЗ 4 35 км н/о +19.2 +7.1 45 +20 +20 тепло 1015.6 1012.7
20 15.06 З 5 30 км н/о +18.7 +6.7 46 +19 +19 тепло 1015.9 1013.0
21 15.06 З 4 50 км н/о +17.9 +6.8 48 +18 +18 тепло 1016.0 1013.1
23 15.06 З 3 40 км н/о +16.3 +8.1 58 +16 +16 тепло 1015.9 1012.9
22 15.06 З 4 45 км н/о +17.1 +7.3 52 +17 +17 тепло 1016.0 1013.0
00 16.06 З 3 35 км н/о +16.0 +7.1 55 +16 +16 тепло 1016.0 1013.0
01 16.06 З 3 50 км н/о +14.9 +7.4 61 +14 +14 тепло 1015.6 1012.6
02 16.06 З 3 30 км н/о +14.5 +7.6 63 +14 +14 тепло 1015.5 1012.5
03 16.06 ЮЗ 3 45 км н/о +14.6 +8.2 65 +14 +14 по сезону 1015.1 1012.1
05 16.06 ЮЗ 3 35 км слаб. морось с дождем н/о +14.0 +8.7 70 +13 +13 тепло 1014.9 1011.9
04 16.06 ЮЗ 2 45 км н/о +14.2 +8.4 68 +14 +14 тепло 1014.8 1011.8
06 16.06 ЮЗ 3 30 км в посл. час дождь н/о +14.7 +8.3 65 +14 +14 по сезону 1014.9 1011.9 +13.9 0.0
07 16.06 ЮЗ 3 35 км в посл. час дождь н/о +15.0 +8.6 66 +14 +14 по сезону 1014.9 1011.9
08 16.06 ЮЗ 4 35 км н/о +16.4 +8.6 60 +16 +16 по сезону 1015.0 1012.0
09 16.06 ЮЗ 4 30 км н/о +17.9 +9.4 58 +18 +18 тепло 1014.6 1011.6
11 16.06 ЮЗ 6 28 км н/о +19.2 +10.3 56 +20 +20 по сезону 1014.3 1011.3
10 16.06 ЮЗ 6 45 км н/о +18.4 +8.1 51 +18 +18 по сезону 1014.5 1011.5
12 16.06 ЮЗ 7 45 км н/о +19.2 +9.4 53 +19 +19 по сезону 1013.9 1011.0 0.0
13 16.06 ЮЗ 6 30 км н/о +18.9 +9.5 54 +19 +19 по сезону 1013.8 1010.9
14 16.06 ЮЗ 8 40 км н/о +19.0 +10.3 57 +19 +19 по сезону 1013.8 1010.8
15 16.06 ЮЗ 7
{13}
35 км н/о +18.3 +11.3 64 +18 +18 по сезону 1013.7 1010.7
17 16.06 ЮЗ 7 30 км н/о +17.7 +11.5 67 +17 +17 по сезону 1013.1 1010.1
16 16.06 ЮЗ 8 35 км н/о +17.8 +11.8 68 +17 +17 по сезону 1013.4 1010.5
18 16.06 ЮЗ 8 24 км н/о +17.9 +11.7 67 +17 +17 по сезону 1013.0 1010.0 +20.5 0.0
19 16.06 ЮЗ 7 22 км н/о +17.6 +11.8 69 +17 +17 тепло 1013.2 1010.2
20 16.06 З 8 30 км н/о +16.4 +9.0 62 +15 +15 по сезону 1013.8 1010.8
21 16.06 З 7 45 км н/о +15.2 +7.7 61 +14 +14 по сезону 1014.4 1011.4
23 16.06 З 7 35 км н/о +14.1 +8.1 67 +12 +12 тепло 1014.7 1011.7
22 16.06 ЮЗ 6 45 км н/о +14.7 +7.7 63 +13 +13 по сезону 1014.6 1011.6
00 17.06 З 4 30 км н/о +13.6 +8.4 71 +12 +12 по сезону 1015.1 1012.1
01 17.06 ЮЗ 4 35 км н/о +13.4 +8.9 74 +12 +12 тепло 1015.2 1012.2
02 17.06 З 5 30 км н/о +13.5 +9.1 75 +12 +12 по сезону 1015.2 1012.2
03 17.06 ЮЗ 5 30 км н/о +13.6 +9.2 75 +12 +12 по сезону 1015.0 1012.0
05 17.06 ЮЗ 6 45 км н/о +13.7 +9.4 75 +12 +12 по сезону 1015.4 1012.4
04 17.06 ЮЗ 5 35 км н/о +13.6 +9.4 76 +12 +12 по сезону 1015.2 1012.2
06 17.06 ЮЗ 6 17 км слаб. ливневой дождь н/о +13.8 +10.4 80 +12 +12 по сезону 1015.9 1012.9 +13.1 0.0
07 17.06 ЮЗ 6 18 км слаб. дождь н/о +13.7 +11.3 85 +12 +12 прохладно 1016.6 1013.6
08 17.06 З 5 21 км слаб. дождь н/о +14.7 +12.2 85 +13 +13 прохладно 1016.8 1013.8
09 17.06 З 6 23 км в посл. час дождь н/о +15.8 +10.5 71 +15 +15 по сезону 1017.1 1014.1
11 17.06 З 6 50 км н/о +18.7 +9.5 55 +19 +19 по сезону 1016.6 1013.7
10 17.06 ЮЗ 6 26 км н/о +17.2 +10.1 63 +16 +16 прохладно 1016.7 1013.7
12 17.06 ЮЗ 8 40 км н/о +18.2 +8.7 54 +18 +18 по сезону 1016.5 1013.5 0.2
13 17.06 ЮЗ 6 45 км н/о +18.4 +9.5 56 +18 +18 по сезону 1016.4 1013.5
14 17.06 ЮЗ 7 30 км н/о +18.2 +10.6 61 +18 +18 по сезону 1016.7 1013.7
15 17.06 ЮЗ 7 21 км н/о +17.4 +10.8 65 +16 +16 прохладно 1016.7 1013.7
17 17.06 ЮЗ 7 35 км н/о +16.8 +11.6 71 +16 +16 прохладно 1016.6 1013.6
16 17.06 ЮЗ 7 26 км н/о +17.7 +10.7 64 +17 +17 по сезону 1016.6 1013.6
18 17.06 ЮЗ 7 45 км н/о +16.1 +12.6 80 +15 +15 прохладно 1016.8 1013.8 +20.1 0.2
19 17.06 ЮЗ 6 25 км н/о +15.8 +12.8 82 +14 +14 по сезону 1017.0 1014.0
20 17.06 ЮЗ 6 29 км н/о +15.5 +13.2 86 +14 +14 по сезону 1016.7 1013.7
21 17.06 ЮЗ 5 21 км н/о +15.6 +13.5 87 +14 +14 по сезону 1017.1 1014.1
23 17.06 ЮЗ 5 8000 м в посл. час морось н/о +15.4 +14.4 94 +14 +14 тепло 1017.0 1014.0
22 17.06 ЮЗ 6 17 км н/о +15.7 +13.9 89 +14 +14 тепло 1017.1 1014.1
00 18.06 ЮЗ 6 11 км дым н/о +15.7 +14.4 92 +14 +14 по сезону 1016.9 1013.9 0.0
01 18.06 ЮЗ 5 11 км н/о +15.8 +14.5 92 +15 +15 тепло 1016.9 1013.9
02 18.06 ЮЗ 4 6000 м слаб. морось н/о +15.4 +15.0 97 +14 +14 тепло 1016.9 1013.9
03 18.06 ЮЗ 4 9000 м в посл. час дождь н/о +15.6 +15.0 96 +15 +15 тепло 1016.9 1013.9
05 18.06 З 5 50 км н/о +14.9 +12.9 88 +13 +13 тепло 1017.6 1014.6
04 18.06 З 6 50 км в посл. час дождь н/о +14.9 +13.4 91 +13 +13 по сезону 1017.4 1014.4
06 18.06 З 6 50 км н/о +15.5 +12.6 83 +14 +14 по сезону 1017.8 1014.8 +14.6 0.2
07 18.06 З 7 40 км в посл. час дождь н/о +17.1 +12.4 74 +16 +16 по сезону 1018.3 1015.3
08 18.06 З 8 40 км н/о +17.2 +11.8 71 +16 +16 по сезону 1019.1 1016.1
09 18.06 З 7 45 км н/о +17.8 +11.6 67 +17 +17 по сезону 1019.4 1016.4

 

Местоположение метеостанции London (Великобритания): широта 51.48 долгота -0.45 высота над уровнем моря 25 м.

В архиве по умолчанию представлена погода в London за последнюю неделю. Архивные данные за месяц целиком и за предыдущие месяцы, начиная с января 2011 года, Вы можете получить, выбрав интересующий диапазон дат из раскрывающегося списка и нажав кнопку "Ввод!".


*Определитесь, кто Вы:
робот инопланетянин человек

Внимание! Время в таблицах - всемирное. Для получения местного времени необходимо прибавить поправку, которая в London равна 0 ч.

Смотрите также архив погоды в соседних городах и на ближайших метеорологических станциях:

Погода в Northolt (Великобритания) (8 км)
Погода в London, St James Park (Великобритания) (23 км)
Погода в Charlwood (Великобритания) (28 км)
Погода в Farnborough (Великобритания) (31 км)
Погода в Kenley Airfield (Великобритания) (33 км)
Погода в High Wycombe Hqstc (Великобритания) (33 км)
Погода в Odiham (Великобритания) (44 км)
Погода в Benson (Великобритания) (46 км)
Погода в Gravesend-Broadness (Великобритания) (52 км)
Погода в Rothamsted (Великобритания) (66 км)

Пояснения к столбцам:

Ветер - указаны скорость ветра в м/с - средняя за 10 мин, порывы в срок и между сроками (в фигурных скобках) и направление, откуда дует ветер: С - северный, СВ - северо-восточный, В - восточный, ЮВ - юго-восточный, Ю - южный, ЮЗ - юго-западный, З - западный, СЗ - северо-западный.
Видимость - горизонтальная дальность видимости в метрах или километрах. При видимости от 1 до 10 км при отсутствии осадков обычно наблюдается дымка, при ухудшении видимости до 1 км и менее - туман. В сухую погоду видимость может ухудшаться дымом, пылью или мглою.
Явления - указаны атмосферные явления, наблюдавшиеся в срок или в последний час перед сроком; фигурными скобками обозначены явления, наблюдавшиеся между сроками (за 1-3 часа до срока); квадратными скобками обозначены град или гололедные отложения с указанием их диаметра в мм.
Облачность - указаны через наклонную черту общая и нижняя облачность в баллах и высота нижней границы облаков в метрах; квадратными скобками обозначены формы облаков: Ci - перистые, Cs - перисто-слоистые, Cc - перисто-кучевые, Ac - высококучевые, As - высокослоистые, Sc - слоисто-кучевые, Ns - слоисто-дождевые, Cu - кучевые, Cb - кучево-дождевые. Подробнее классификацию облаков см. в Атласе облаков (PDF).
T - Температура воздуха - температура, измеренная на высоте 2 м над землей.
Td - Температура точки росы - температура, при понижении до которой содержащийся в воздухе водяной пар достигнет насыщения.
f - Относительная влажность воздуха - влажноcть воздуха, измеренная на высоте 2 м над землей.
Te - Эффективная температура - температура, которую ощущает одетый по сезону человек в тени. Характеристика душности погоды. При расчете учитывается влияние влажности воздуха и скорости ветра на теплоощущения человека.
Tes - Эффективная температура на солнце - температура, которую ощущает человек, с поправкой на солнечный нагрев. Характеристика знойности погоды. Зависит от высоты солнца над горизонтом, облачности и скорости ветра. Ночью, в пасмурную погоду, а также при ветре 12 м/с и более поправка равна нулю.
P - Атмосферное давление - приведенное к уровню моря атмосферное давление.
Po - Атмосферное давление - измеренное на уровне метеостанции атмосферное давление.
Tmin - Минимальная температура - минимум температуры воздуха на высоте 2 м над землей.
Tmax - Максимальная температура - максимум температуры воздуха на высоте 2 м над землей.
R - Количество осадков - Количество выпавших осадков за период времени, мм. При наведении курсора мыши на число - период времени, за который выпало указанное количество осадков.
R24 - Количество осадков - Количество выпавших осадков за 24 часа, мм.
S - Снежный покров - Высота снежного покрова, см. При наведении курсора мыши на число - состояние снежного покрова и степень покрытия местности в баллах.